Location: Bacharowice
(49.9333°N, 19.5833°E)
Time: 01:14:44
(UTC+00:00)

USA 305 - Pass Details

Date: 25 September 2021
Orbit: 547 x 588 km, 54.0° (Epoch: 03 October)

Event Time Altitude Azimuth Distance (km) Brightness Sun altitude
Rises 18:49:58 0° 294° (WNW) 2,750 7.9 -22.2°
Reaches altitude 10° 18:52:12 10° 295° (WNW) 1,859 6.6 -22.5°
Maximum altitude 18:56:27 88° 24° (NNE) 575 2.8 -23.1°
Enters shadow 18:56:28 88° 40° (NE) 575 2.7 -23.1°
